Tracking 22879 objects as of 23-Apr-2021
HD Live streaming from Space Station
objects crossing your sky now

FLOCK 2K 05

Track FLOCK 2K 05 now!
10-day predictions
FLOCK 2K 05 is classified as:


NORAD ID: 42864
Int'l Code: 2017-042AR
Perigee: 417.8 km
Apogee: 424.9 km
Inclination: 96.9 °
Period: 92.9 minutes
Semi major axis: 6792 km
RCS: Unknown
Launch date: July 14, 2017
Source: United States (US)
Launch site: TYURATAM MISSILE AND SPACE COMPLEX (TTMTR)
aabbcc
Your satellite tracking list
Your tracking list is empty




NASA's NSSDC Master Catalog

Two Line Element Set (TLE):
1 42864U 17042AR  21112.57587765  .00015883  00000-0  27622-3 0  9992
2 42864  96.8528 331.9516 0005240 265.4895  94.5760 15.50852890211987
Source of the keplerian elements: AFSPC